FENGYUN 1C DEB

Satellite information

Favourite Embed

Satellite Type and Status

DEBRISIN ORBIT

Key statistics

Satellite FENGYUN 1C DEB at a glance.

Uptime

9555

Days in orbit

Revolutions

≈ 14.7

Per day

Orbit

SSO

Sun Synchronous Orbit

Inclination

99.1

Latest

Satellite identification and parameters

Extended collection of information and parameters for FENGYUN 1C DEB.

Object identification

Identified? True

Debris? True

Object name: FENGYUN 1C DEB

International designator: 1999-025DUT

Object number (NORAD): 36218

Object ID (CCSDS): 36218

Country: PEOPLES REPUBLIC OF CHINA (PRC)

Current information (Y/N): Y

RCS size: SMALL

Orbital parameters

Period: 98.059 minutes

Inclination: 99.0865 deg

SMA: 7043.988 km

Apoapsis: 720.448 km

Periapsis: 611.259 km

RAAN: 8.428 deg

Eccentricy: 0.0077505

Argument of periapsis: 73.2939 deg

Mean anomaly: 287.6751 deg

Mean motion: 14.68502967 rev/day

Mean motion (dot): 0.00004715 rev/day2

B* drag term: 0.00078725 1/REarth

Two-line elements (TLE)

Creation date: July 4, 2025, 6:39 p.m.

Reference frame: TEME

Reference center: EARTH

Epoch: July 4, 2025, 10:53 a.m. UTC

TLE line 0: 0 FENGYUN 1C DEB

TLE line 1: 1 36218U 99025DUT 25185.45393784 .00004715 00000-0 78725-3 0 9998

TLE line 2: 2 36218 99.0865 8.4280 0077505 73.2939 287.6751 14.68502967567741

Live tracking on map

Real-time ground track for satellite FENGYUN 1C DEB.

In-orbit conjunctions

A list of the most updated potential collisions computed for object FENGYUN 1C DEB.

Target Orbit TCA Probability of collision Miss distance Type
SL-14 R/B LEO 2025-04-11 01:25:33 0.0001285796 418.0 (m) ROCKET BODY
SL-14 R/B LEO 2025-01-05 00:26:34 0.0001098274 650.0 (m) ROCKET BODY
RUBIN 9.1/RUBIN 9.2/PSLV SSO 2024-09-11 05:16:21 0.0001168233 385.0 (m) PAYLOAD
IRIDIUM 69 LEO 2024-07-12 02:17:24 0.0001363583 679.0 (m) PAYLOAD

Associated space launch

Chinese polar orbiting meteorological satellite

FENGYUN 1C DEB was lifted into orbit during the mission ‘Long March 4B | Feng Yun 1C’, on board a Long March 4B space rocket.

The launch took place on May 10, 1999, 1:33 a.m. from Launch Complex 7.

For more information about the launch, click the button.

Launch to space Long March 4B | Feng Yun 1C
Long March 4B | Feng Yun 1C

Agency: N/A

Status: Launch Successful

Launch date: May 10, 1999, 1:33 a.m. UTC

Rocket: Long March 4B

Launch pad: Launch Complex 7

Location: Taiyuan Satellite Launch Center, People's Republic of China

...

Latest news about this satellite

There are no fresh news available about this satellite. Check back as we update our databases every day.


Newsletter sign-up

Weekly statistics, charts and insights to help you stay on top of the space industry.